Hourly Weather Newcastle

Today, 10 July, Friday

Time Temperature Precipitation Wind Pressure Humidity
00:00 +12°C° 0 mm 2 mps 748 mmHg 94%
01:00 +10°C° 0 mm 3 mps 748 mmHg 94%
02:00 +9°C° 0 mm 3 mps 747 mmHg 93%
03:00 +7°C° 0 mm 4 mps 747 mmHg 93%
04:00 +8°C° 0 mm 4 mps 748 mmHg 92%
05:00 +8°C° 0 mm 5 mps 748 mmHg 90%
06:00 +9°C° 0 mm 5 mps 748 mmHg 91%
07:00 +10°C° 0.1 mm 6 mps 749 mmHg 86%
08:00 +11°C° 0.1 mm 6 mps 749 mmHg 80%
09:00 +12°C° 0.1 mm 7 mps 749 mmHg 75%
10:00 +14°C° 0.1 mm 7 mps 749 mmHg 72%
11:00 +14°C° 0.1 mm 7 mps 750 mmHg 68%
12:00 +15°C° 0.1 mm 7 mps 750 mmHg 65%
13:00 +15°C° 0 mm 7 mps 750 mmHg 65%
14:00 +15°C° 0 mm 7 mps 750 mmHg 64%
15:00 +15°C° 0 mm 7 mps 750 mmHg 64%
16:00 +15°C° 0 mm 7 mps 751 mmHg 66%
17:00 +14°C° 0 mm 6 mps 751 mmHg 68%
18:00 +14°C° 0 mm 6 mps 751 mmHg 71%
19:00 +13°C° 0 mm 5 mps 752 mmHg 76%
20:00 +11°C° 0 mm 4 mps 752 mmHg 81%
21:00 +10°C° 0 mm 4 mps 753 mmHg 86%
22:00 +10°C° 0 mm 4 mps 753 mmHg 88%
23:00 +10°C° 0 mm 4 mps 753 mmHg 89%

Tomorrow, 11 July, Saturday

Time Temperature Precipitation Wind Pressure Humidity
00:00 +8°C° 0 mm 4 mps 754 mmHg 91%
01:00 +8°C° 0 mm 4 mps 754 mmHg 91%
02:00 +8°C° 0 mm 4 mps 754 mmHg 92%
03:00 +8°C° 0 mm 3 mps 754 mmHg 92%
04:00 +8°C° 0 mm 4 mps 754 mmHg 90%
05:00 +10°C° 0 mm 4 mps 754 mmHg 89%
06:00 +10°C° 0 mm 4 mps 754 mmHg 87%
07:00 +10°C° 0 mm 5 mps 755 mmHg 83%
08:00 +13°C° 0 mm 5 mps 755 mmHg 78%
09:00 +14°C° 0 mm 5 mps 756 mmHg 73%
10:00 +14°C° 0.1 mm 5 mps 756 mmHg 72%
11:00 +15°C° 0.1 mm 5 mps 756 mmHg 70%
12:00 +16°C° 0.1 mm 5 mps 756 mmHg 68%
13:00 +16°C° 0 mm 5 mps 756 mmHg 67%
14:00 +16°C° 0 mm 5 mps 756 mmHg 65%
15:00 +17°C° 0 mm 4 mps 756 mmHg 64%
16:00 +17°C° 0 mm 4 mps 756 mmHg 66%
17:00 +17°C° 0 mm 4 mps 756 mmHg 68%
18:00 +15°C° 0 mm 4 mps 756 mmHg 70%
19:00 +13°C° 0 mm 3 mps 757 mmHg 74%
20:00 +12°C° 0 mm 3 mps 757 mmHg 77%
21:00 +10°C° 0 mm 2 mps 757 mmHg 81%
22:00 +9°C° 0 mm 2 mps 757 mmHg 83%
23:00 +10°C° 0 mm 1 mps 757 mmHg 85%

Day after tomorrow, 12 July, Sunday

Time Temperature Precipitation Wind Pressure Humidity
00:00 +9°C° 0 mm 1 mps 757 mmHg 87%
01:00 +9°C° 0 mm 1 mps 757 mmHg 88%
02:00 +9°C° 0 mm 1 mps 757 mmHg 90%
03:00 +9°C° 0 mm 1 mps 757 mmHg 91%
04:00 +10°C° 0 mm 1 mps 757 mmHg 90%
05:00 +10°C° 0 mm 1 mps 757 mmHg 89%
06:00 +11°C° 0 mm 1 mps 757 mmHg 88%
07:00 +13°C° 0 mm 1 mps 757 mmHg 83%
08:00 +14°C° 0 mm 1 mps 758 mmHg 79%
09:00 +15°C° 0 mm 1 mps 758 mmHg 74%
10:00 +16°C° 0 mm 1 mps 758 mmHg 70%
11:00 +17°C° 0 mm 2 mps 758 mmHg 65%
12:00 +18°C° 0 mm 2 mps 758 mmHg 61%
13:00 +19°C° 0 mm 2 mps 758 mmHg 60%
14:00 +19°C° 0 mm 2 mps 757 mmHg 60%
15:00 +19°C° 0 mm 2 mps 757 mmHg 59%
16:00 +19°C° 0 mm 2 mps 757 mmHg 63%
17:00 +20°C° 0 mm 1 mps 757 mmHg 68%
18:00 +20°C° 0 mm 1 mps 756 mmHg 72%
19:00 +18°C° 0 mm 1 mps 757 mmHg 76%
20:00 +15°C° 0 mm 1 mps 757 mmHg 80%
21:00 +14°C° 0 mm 1 mps 757 mmHg 83%
22:00 +13°C° 0 mm 1 mps 757 mmHg 85%
23:00 +13°C° 0 mm 1 mps 757 mmHg 86%

13 July, Monday

Time Temperature Precipitation Wind Pressure Humidity
00:00 +12°C° 0 mm 1 mps 756 mmHg 88%
01:00 +12°C° 0 mm 1 mps 756 mmHg 88%
02:00 +11°C° 0 mm 1 mps 756 mmHg 89%
03:00 +11°C° 0 mm 1 mps 755 mmHg 89%
04:00 +11°C° 0 mm 1 mps 755 mmHg 87%
05:00 +12°C° 0 mm 2 mps 755 mmHg 85%
06:00 +12°C° 0 mm 2 mps 755 mmHg 83%
07:00 +13°C° 0 mm 2 mps 755 mmHg 78%
08:00 +14°C° 0 mm 3 mps 755 mmHg 74%
09:00 +16°C° 0 mm 3 mps 755 mmHg 70%
10:00 +17°C° 0 mm 3 mps 754 mmHg 70%
11:00 +18°C° 0 mm 3 mps 754 mmHg 70%
12:00 +19°C° 0 mm 3 mps 754 mmHg 70%
13:00 +19°C° 0 mm 4 mps 753 mmHg 72%
14:00 +18°C° 0 mm 4 mps 753 mmHg 75%
15:00 +17°C° 0 mm 4 mps 752 mmHg 78%
16:00 +17°C° 0.1 mm 4 mps 752 mmHg 80%
17:00 +17°C° 0.1 mm 3 mps 752 mmHg 81%
18:00 +16°C° 0.1 mm 3 mps 752 mmHg 83%
19:00 +16°C° 0.1 mm 3 mps 751 mmHg 86%
20:00 +14°C° 0.1 mm 3 mps 751 mmHg 89%
21:00 +14°C° 0.1 mm 3 mps 751 mmHg 92%
22:00 +14°C° 0.2 mm 3 mps 751 mmHg 93%
23:00 +13°C° 0.2 mm 3 mps 750 mmHg 93%

14 July, Tuesday

Time Temperature Precipitation Wind Pressure Humidity
00:00 +13°C° 0.2 mm 3 mps 750 mmHg 94%
01:00 +13°C° 0.2 mm 3 mps 750 mmHg 95%
02:00 +14°C° 0.2 mm 2 mps 749 mmHg 96%
03:00 +14°C° 0.2 mm 2 mps 749 mmHg 97%
04:00 +14°C° 0.2 mm 2 mps 749 mmHg 96%
05:00 +14°C° 0.2 mm 2 mps 749 mmHg 96%
06:00 +14°C° 0.2 mm 2 mps 749 mmHg 95%
07:00 +15°C° 0.1 mm 2 mps 748 mmHg 95%
08:00 +15°C° 0.1 mm 2 mps 748 mmHg 94%
09:00 +15°C° 0.1 mm 2 mps 748 mmHg 94%
10:00 +16°C° 0.1 mm 2 mps 748 mmHg 89%
11:00 +17°C° 0.1 mm 3 mps 748 mmHg 85%
12:00 +18°C° 0.1 mm 3 mps 748 mmHg 80%
13:00 +18°C° 0.1 mm 4 mps 748 mmHg 77%
14:00 +18°C° 0.1 mm 4 mps 748 mmHg 73%
15:00 +17°C° 0.1 mm 5 mps 747 mmHg 70%
16:00 +17°C° 0 mm 5 mps 747 mmHg 71%
17:00 +17°C° 0 mm 4 mps 747 mmHg 72%
18:00 +17°C° 0 mm 4 mps 748 mmHg 72%
19:00 +14°C° 0 mm 4 mps 748 mmHg 77%
20:00 +13°C° 0 mm 3 mps 748 mmHg 81%
21:00 +13°C° 0 mm 2 mps 748 mmHg 86%
22:00 +13°C° 0 mm 2 mps 748 mmHg 86%
23:00 +13°C° 0 mm 2 mps 748 mmHg 87%

15 July, Wednesday

Time Temperature Precipitation Wind Pressure Humidity
00:00 +13°C° 0 mm 2 mps 748 mmHg 87%
01:00 +13°C° 0 mm 2 mps 747 mmHg 87%
02:00 +12°C° 0 mm 3 mps 747 mmHg 87%
03:00 +12°C° 0 mm 3 mps 747 mmHg 87%
04:00 +13°C° 0 mm 3 mps 747 mmHg 89%
05:00 +13°C° 0 mm 3 mps 747 mmHg 91%
06:00 +13°C° 0 mm 3 mps 747 mmHg 92%
07:00 +13°C° 0 mm 3 mps 747 mmHg 92%
08:00 +13°C° 0 mm 3 mps 747 mmHg 92%
09:00 +14°C° 0 mm 3 mps 747 mmHg 92%
10:00 +14°C° 0 mm 3 mps 747 mmHg 91%
11:00 +15°C° 0 mm 4 mps 747 mmHg 90%
12:00 +15°C° 0 mm 4 mps 747 mmHg 89%
13:00 +15°C° 0 mm 4 mps 747 mmHg 88%
14:00 +17°C° 0 mm 4 mps 747 mmHg 87%
15:00 +17°C° 0 mm 4 mps 747 mmHg 86%
16:00 +17°C° 0 mm 4 mps 748 mmHg 86%
17:00 +17°C° 0 mm 4 mps 748 mmHg 86%
18:00 +17°C° 0 mm 4 mps 748 mmHg 86%
19:00 +17°C° 0 mm 4 mps 748 mmHg 89%
20:00 +16°C° 0 mm 3 mps 749 mmHg 91%
21:00 +16°C° 0 mm 2 mps 749 mmHg 94%
22:00 +15°C° 0 mm 2 mps 749 mmHg 94%
23:00 +15°C° 0 mm 2 mps 750 mmHg 95%
Show more